Station Historical Data
Daily Summary for July 26, 2017 Units:  English    Metric   Both
Next Day »
Daily Weekly Monthly Yearly Custom
  High: Low: Average:
Temperature: 86.1 °F 66.9 °F 75.3 °F
Dew Point: 59.0 °F 49.2 °F 52.6 °F
Humidity: 65% 29% 47%
Wind Speed: 9.0mph 0.0mph 1.7mph
Wind Gust: 13.0mph - -
Wind- - SSE
Pressure: 29.99 in 29.93 in -
Precipitation: 0.00 in    
Historical Graphs
 
 
Tabular Data for July 26, 2017
Time Temperature Dew Point Pressure Wind Wind Speed Wind Gust Humidity Rainfall Rate (Hourly) solar Conditions
00:03 70.9 °F 51.9 °F 29.95 in Calm     51% 0.00 in 0.00 W/m2
00:08 70.7 °F 51.7 °F 29.95 in ESE 1.0 mph 1.0 mph 51% 0.00 in 0.00 W/m2
00:13 70.5 °F 52.0 °F 29.95 in Calm   2.0 mph 52% 0.00 in 0.00 W/m2
00:18 70.3 °F 51.9 °F 29.95 in Calm     52% 0.00 in 0.00 W/m2
00:23 70.1 °F 51.7 °F 29.95 in ESE 1.0 mph 5.0 mph 52% 0.00 in 0.00 W/m2
00:28 69.9 °F 51.5 °F 29.95 in Calm   1.0 mph 52% 0.00 in 0.00 W/m2
00:33 69.8 °F 51.4 °F 29.95 in Calm   5.0 mph 52% 0.00 in 0.00 W/m2
00:38 69.7 °F 51.8 °F 29.95 in Calm   1.0 mph 53% 0.00 in 0.00 W/m2
00:43 69.5 °F 51.6 °F 29.95 in Calm     53% 0.00 in 0.00 W/m2
00:48 69.5 °F 51.6 °F 29.95 in Calm   4.0 mph 53% 0.00 in 0.00 W/m2
00:53 69.4 °F 51.5 °F 29.95 in Calm   6.0 mph 53% 0.00 in 0.00 W/m2
00:58 69.2 °F 51.9 °F 29.95 in Calm     54% 0.00 in 0.00 W/m2
01:03 69.1 °F 51.3 °F 29.95 in Calm     53% 0.00 in 0.00 W/m2
01:08 68.9 °F 51.6 °F 29.95 in Calm     54% 0.00 in 0.00 W/m2
01:13 68.7 °F 51.4 °F 29.95 in Calm   4.0 mph 54% 0.00 in 0.00 W/m2
01:18 68.5 °F 51.7 °F 29.95 in ESE 2.0 mph 2.0 mph 55% 0.00 in 0.00 W/m2
01:23 68.2 °F 51.4 °F 29.95 in Calm     55% 0.00 in 0.00 W/m2
01:28 68.0 °F 51.2 °F 29.95 in Calm     55% 0.00 in 0.00 W/m2
01:33 67.8 °F 51.1 °F 29.95 in ESE 2.0 mph 4.0 mph 55% 0.00 in 0.00 W/m2
01:38 67.7 °F 51.0 °F 29.95 in Calm     55% 0.00 in 0.00 W/m2
01:43 67.6 °F 50.9 °F 29.95 in ESE 1.0 mph 4.0 mph 55% 0.00 in 0.00 W/m2
01:48 67.4 °F 50.7 °F 29.95 in Calm   4.0 mph 55% 0.00 in 0.00 W/m2
01:53 67.3 °F 51.1 °F 29.95 in ESE 1.0 mph 4.0 mph 56% 0.00 in 0.00 W/m2
01:58 67.3 °F 51.1 °F 29.95 in Calm     56% 0.00 in 0.00 W/m2
02:03 67.3 °F 51.1 °F 29.95 in Calm     56% 0.00 in 0.00 W/m2
02:08 67.3 °F 51.1 °F 29.95 in Calm   4.0 mph 56% 0.00 in 0.00 W/m2
02:13 67.2 °F 51.0 °F 29.95 in Calm     56% 0.00 in 0.00 W/m2
02:18 67.1 °F 50.9 °F 29.95 in Calm     56% 0.00 in 0.00 W/m2
02:23 67.0 °F 50.8 °F 29.94 in ESE 2.0 mph 5.0 mph 56% 0.00 in 0.00 W/m2
02:29 66.9 °F 50.7 °F 29.94 in ESE 2.0 mph 5.0 mph 56% 0.00 in 0.00 W/m2
02:34 66.9 °F 50.7 °F 29.94 in ESE 1.0 mph 5.0 mph 56% 0.00 in 0.00 W/m2
02:39 66.9 °F 50.7 °F 29.94 in ESE 5.0 mph 7.0 mph 56% 0.00 in 0.00 W/m2
02:44 67.0 °F 50.8 °F 29.94 in Calm   5.0 mph 56% 0.00 in 0.00 W/m2
02:49 67.0 °F 50.8 °F 29.94 in ESE 2.0 mph 6.0 mph 56% 0.00 in 0.00 W/m2
02:54 67.1 °F 50.9 °F 29.94 in ESE 6.0 mph 12.0 mph 56% 0.00 in 0.00 W/m2
02:59 67.2 °F 51.0 °F 29.94 in ESE 5.0 mph 7.0 mph 56% 0.00 in 0.00 W/m2
03:04 67.2 °F 51.0 °F 29.94 in ESE 4.0 mph 9.0 mph 56% 0.00 in 0.00 W/m2
03:09 67.2 °F 51.0 °F 29.94 in Calm   8.0 mph 56% 0.00 in 0.00 W/m2
03:14 67.3 °F 51.1 °F 29.94 in ESE 5.0 mph 8.0 mph 56% 0.00 in 0.00 W/m2
03:19 67.3 °F 51.1 °F 29.94 in ESE 5.0 mph 12.0 mph 56% 0.00 in 0.00 W/m2
03:24 67.4 °F 51.2 °F 29.94 in ESE 4.0 mph 9.0 mph 56% 0.00 in 0.00 W/m2
03:29 67.5 °F 51.3 °F 29.94 in East 4.0 mph 9.0 mph 56% 0.00 in 0.00 W/m2
03:34 67.5 °F 51.3 °F 29.94 in East 5.0 mph 9.0 mph 56% 0.00 in 0.00 W/m2
03:39 67.6 °F 51.4 °F 29.94 in East 5.0 mph 11.0 mph 56% 0.00 in 0.00 W/m2
03:44 67.7 °F 51.5 °F 29.94 in East 5.0 mph 11.0 mph 56% 0.00 in 0.00 W/m2
03:49 67.7 °F 51.5 °F 29.94 in ESE 5.0 mph 9.0 mph 56% 0.00 in 0.00 W/m2
03:54 67.8 °F 51.1 °F 29.94 in ESE 7.0 mph 9.0 mph 55% 0.00 in 0.00 W/m2
03:59 67.9 °F 51.2 °F 29.94 in ESE 7.0 mph 11.0 mph 55% 0.00 in 0.00 W/m2
04:04 68.0 °F 51.2 °F 29.94 in East 7.0 mph 12.0 mph 55% 0.00 in 0.00 W/m2
04:09 68.0 °F 51.2 °F 29.94 in Calm   12.0 mph 55% 0.00 in 0.00 W/m2
04:14 68.0 °F 51.2 °F 29.94 in ESE 6.0 mph 13.0 mph 55% 0.00 in 0.00 W/m2
04:19 68.1 °F 51.3 °F 29.94 in ESE 8.0 mph 12.0 mph 55% 0.00 in 0.00 W/m2
04:24 68.1 °F 51.3 °F 29.94 in Calm   11.0 mph 55% 0.00 in 0.00 W/m2
04:29 68.2 °F 51.4 °F 29.94 in ESE 7.0 mph 13.0 mph 55% 0.00 in 0.00 W/m2
04:34 68.2 °F 51.4 °F 29.94 in ESE 8.0 mph 12.0 mph 55% 0.00 in 0.00 W/m2
04:39 68.2 °F 51.4 °F 29.95 in East 2.0 mph 12.0 mph 55% 0.00 in 0.00 W/m2
04:44 68.2 °F 51.4 °F 29.95 in East 5.0 mph 13.0 mph 55% 0.00 in 0.00 W/m2
04:49 68.2 °F 51.4 °F 29.94 in East 7.0 mph 9.0 mph 55% 0.00 in 0.00 W/m2
04:54 68.2 °F 51.4 °F 29.95 in East 8.0 mph 12.0 mph 55% 0.00 in 0.00 W/m2
04:59 68.2 °F 51.4 °F 29.95 in East 7.0 mph 11.0 mph 55% 0.00 in 0.00 W/m2
05:05 68.2 °F 50.9 °F 29.95 in East 9.0 mph 11.0 mph 54% 0.00 in 0.00 W/m2
05:10 68.1 °F 51.3 °F 29.95 in ESE 8.0 mph 13.0 mph 55% 0.00 in 0.00 W/m2
05:15 68.1 °F 50.8 °F 29.95 in Calm   11.0 mph 54% 0.00 in 0.00 W/m2
05:20 68.1 °F 51.3 °F 29.95 in Calm   11.0 mph 55% 0.00 in 0.00 W/m2
05:25 68.1 °F 51.3 °F 29.95 in ESE 5.0 mph 12.0 mph 55% 0.00 in 0.00 W/m2
05:30 68.1 °F 51.3 °F 29.95 in East 6.0 mph 11.0 mph 55% 0.00 in 0.00 W/m2
05:35 68.0 °F 51.2 °F 29.95 in Calm   13.0 mph 55% 0.00 in 0.00 W/m2
05:40 68.0 °F 51.2 °F 29.95 in Calm   12.0 mph 55% 0.00 in 0.00 W/m2
05:45 67.9 °F 51.2 °F 29.95 in ESE 6.0 mph 11.0 mph 55% 0.00 in 0.00 W/m2
05:50 67.9 °F 51.2 °F 29.96 in ESE 4.0 mph 11.0 mph 55% 0.00 in 0.00 W/m2
05:55 67.9 °F 51.2 °F 29.96 in ESE 4.0 mph 12.0 mph 55% 0.00 in 0.00 W/m2
06:00 67.8 °F 51.5 °F 29.96 in East 6.0 mph 11.0 mph 56% 0.00 in 5.00 W/m2
06:05 67.8 °F 51.5 °F 29.96 in ESE 1.0 mph 11.0 mph 56% 0.00 in 7.00 W/m2
06:10 67.7 °F 51.5 °F 29.96 in Calm   11.0 mph 56% 0.00 in 9.00 W/m2
06:15 67.7 °F 51.5 °F 29.96 in Calm   9.0 mph 56% 0.00 in 12.00 W/m2
06:20 67.7 °F 51.5 °F 29.96 in East 6.0 mph 11.0 mph 56% 0.00 in 14.00 W/m2
06:25 67.6 °F 51.8 °F 29.97 in ESE 2.0 mph 11.0 mph 57% 0.00 in 16.00 W/m2
06:30 67.6 °F 51.8 °F 29.97 in ESE 4.0 mph 11.0 mph 57% 0.00 in 23.00 W/m2
06:35 67.6 °F 51.8 °F 29.97 in ESE 6.0 mph 8.0 mph 57% 0.00 in 32.00 W/m2
06:40 67.6 °F 51.8 °F 29.97 in ESE 5.0 mph 9.0 mph 57% 0.00 in 44.00 W/m2
06:45 67.5 °F 51.8 °F 29.97 in ESE 5.0 mph 11.0 mph 57% 0.00 in 54.00 W/m2
06:50 67.5 °F 51.8 °F 29.97 in ESE 4.0 mph 9.0 mph 57% 0.00 in 67.00 W/m2
06:55 67.5 °F 52.2 °F 29.97 in Calm   12.0 mph 58% 0.00 in 83.00 W/m2
07:00 67.5 °F 52.2 °F 29.97 in East 2.0 mph 9.0 mph 58% 0.00 in 98.00 W/m2
07:05 67.5 °F 52.2 °F 29.98 in East 5.0 mph 12.0 mph 58% 0.00 in 116.00 W/m2
07:10 67.5 °F 52.2 °F 29.98 in East 6.0 mph 12.0 mph 58% 0.00 in 134.00 W/m2
07:15 67.5 °F 52.7 °F 29.97 in Calm   9.0 mph 59% 0.00 in 151.00 W/m2
07:20 67.6 °F 52.8 °F 29.98 in Calm   11.0 mph 59% 0.00 in 169.00 W/m2
07:25 67.6 °F 53.2 °F 29.98 in Calm   9.0 mph 60% 0.00 in 190.00 W/m2
07:30 67.5 °F 53.1 °F 29.98 in Calm   12.0 mph 60% 0.00 in 207.00 W/m2
07:35 67.6 °F 53.2 °F 29.98 in ESE 4.0 mph 9.0 mph 60% 0.00 in 229.00 W/m2
07:40 67.6 °F 53.7 °F 29.98 in Calm   12.0 mph 61% 0.00 in 248.00 W/m2
07:45 67.6 °F 53.7 °F 29.98 in Calm   8.0 mph 61% 0.00 in 265.00 W/m2
07:50 67.7 °F 53.8 °F 29.98 in Calm   6.0 mph 61% 0.00 in 281.00 W/m2
07:55 67.7 °F 53.8 °F 29.98 in East 1.0 mph 6.0 mph 61% 0.00 in 297.00 W/m2
08:00 67.9 °F 54.0 °F 29.98 in Calm   6.0 mph 61% 0.00 in 315.00 W/m2
08:05 67.9 °F 54.4 °F 29.98 in Calm   6.0 mph 62% 0.00 in 329.00 W/m2
08:10 68.0 °F 55.0 °F 29.98 in East 4.0 mph 5.0 mph 63% 0.00 in 343.00 W/m2
08:15 68.1 °F 55.0 °F 29.98 in Calm   5.0 mph 63% 0.00 in 360.00 W/m2
08:20 68.3 °F 55.7 °F 29.98 in Calm   5.0 mph 64% 0.00 in 376.00 W/m2
08:25 68.4 °F 56.2 °F 29.99 in East 1.0 mph 7.0 mph 65% 0.00 in 390.00 W/m2
08:30 68.6 °F 56.4 °F 29.98 in Calm   8.0 mph 65% 0.00 in 406.00 W/m2
08:36 68.8 °F 56.6 °F 29.98 in Calm   7.0 mph 65% 0.00 in 424.00 W/m2
08:41 69.1 °F 56.4 °F 29.98 in ESE 2.0 mph 7.0 mph 64% 0.00 in 439.00 W/m2
08:46 69.3 °F 56.6 °F 29.98 in Calm   7.0 mph 64% 0.00 in 454.00 W/m2
08:51 69.6 °F 57.3 °F 29.98 in Calm     65% 0.00 in 468.00 W/m2
08:56 69.9 °F 57.2 °F 29.98 in ESE 2.0 mph 2.0 mph 64% 0.00 in 483.00 W/m2
09:01 70.3 °F 57.1 °F 29.98 in ESE 4.0 mph 4.0 mph 63% 0.00 in 499.00 W/m2
09:06 70.7 °F 57.5 °F 29.98 in Calm     63% 0.00 in 513.00 W/m2
09:11 71.1 °F 57.9 °F 29.98 in Calm     63% 0.00 in 529.00 W/m2
09:16 71.5 °F 58.3 °F 29.98 in Calm     63% 0.00 in 543.00 W/m2
09:21 71.9 °F 57.7 °F 29.98 in ESE 7.0 mph 7.0 mph 61% 0.00 in 559.00 W/m2
09:26 72.3 °F 57.2 °F 29.98 in Calm   1.0 mph 59% 0.00 in 573.00 W/m2
09:31 72.7 °F 57.6 °F 29.98 in Calm     59% 0.00 in 587.00 W/m2
09:36 73.1 °F 57.5 °F 29.98 in Calm   1.0 mph 58% 0.00 in 599.00 W/m2
09:41 73.5 °F 58.3 °F 29.98 in Calm     59% 0.00 in 613.00 W/m2
09:46 73.8 °F 57.1 °F 29.99 in Calm     56% 0.00 in 628.00 W/m2
09:51 74.3 °F 56.6 °F 29.99 in Calm     54% 0.00 in 640.00 W/m2
09:56 74.6 °F 56.4 °F 29.99 in Calm     53% 0.00 in 654.00 W/m2
10:01 74.8 °F 54.4 °F 29.99 in Calm     49% 0.00 in 666.00 W/m2
10:06 75.0 °F 55.1 °F 29.99 in Calm     50% 0.00 in 673.00 W/m2
10:11 75.5 °F 57.2 °F 29.99 in Calm   2.0 mph 53% 0.00 in 701.00 W/m2
10:16 76.1 °F 58.8 °F 29.99 in East 1.0 mph 6.0 mph 55% 0.00 in 705.00 W/m2
10:21 76.6 °F 58.7 °F 29.99 in ENE 1.0 mph 3.0 mph 54% 0.00 in 712.00 W/m2
10:26 76.9 °F 59.0 °F 29.99 in Calm   2.0 mph 54% 0.00 in 717.00 W/m2
10:31 77.2 °F 58.8 °F 29.99 in Calm   3.0 mph 53% 0.00 in 726.00 W/m2
10:36 77.4 °F 58.4 °F 29.99 in Calm     52% 0.00 in 740.00 W/m2
10:41 77.8 °F 57.7 °F 29.99 in Calm   2.0 mph 50% 0.00 in 751.00 W/m2
10:46 78.1 °F 57.4 °F 29.99 in Calm   4.0 mph 49% 0.00 in 758.00 W/m2
10:51 78.4 °F 56.5 °F 29.99 in Calm     47% 0.00 in 770.00 W/m2
10:53 78.4 °F 55.9 °F 29.99 in Calm   2.0 mph 46% 0.00 in 770.00 W/m2
10:58 78.6 °F 56.7 °F 29.99 in Calm     47% 0.00 in 782.00 W/m2
11:03 78.8 °F 56.9 °F 29.99 in Calm   4.0 mph 47% 0.00 in 791.00 W/m2
11:08 79.1 °F 56.0 °F 29.99 in Calm   1.0 mph 45% 0.00 in 800.00 W/m2
11:13 79.4 °F 56.8 °F 29.98 in Calm   1.0 mph 46% 0.00 in 807.00 W/m2
11:18 79.6 °F 57.0 °F 29.98 in Calm   4.0 mph 46% 0.00 in 816.00 W/m2
11:23 79.9 °F 57.3 °F 29.98 in Calm     46% 0.00 in 823.00 W/m2
11:28 80.2 °F 56.3 °F 29.98 in Calm   2.0 mph 44% 0.00 in 831.00 W/m2
11:33 80.4 °F 55.2 °F 29.98 in Calm   3.0 mph 42% 0.00 in 842.00 W/m2
11:38 80.7 °F 56.2 °F 29.98 in Calm   3.0 mph 43% 0.00 in 847.00 W/m2
11:43 81.0 °F 55.1 °F 29.98 in NNE 4.0 mph 5.0 mph 41% 0.00 in 860.00 W/m2
11:48 81.3 °F 54.0 °F 29.98 in NNW 1.0 mph 6.0 mph 39% 0.00 in 872.00 W/m2
11:53 81.5 °F 52.7 °F 29.98 in Calm   6.0 mph 37% 0.00 in 879.00 W/m2
11:58 81.9 °F 53.8 °F 29.98 in WNW 3.0 mph 3.0 mph 38% 0.00 in 884.00 W/m2
12:03 82.1 °F 54.0 °F 29.98 in Calm   4.0 mph 38% 0.00 in 888.00 W/m2
12:08 82.4 °F 52.8 °F 29.98 in West 1.0 mph 10.0 mph 36% 0.00 in 891.00 W/m2
12:14 82.9 °F 54.0 °F 29.98 in Calm   1.0 mph 37% 0.00 in 895.00 W/m2
12:19 83.4 °F 52.9 °F 29.99 in Calm   8.0 mph 35% 0.00 in 896.00 W/m2
12:24 83.7 °F 53.2 °F 29.99 in Calm   8.0 mph 35% 0.00 in 902.00 W/m2
12:29 84.0 °F 54.2 °F 29.99 in WSW 2.0 mph 9.0 mph 36% 0.00 in 905.00 W/m2
12:34 84.1 °F 53.5 °F 29.98 in Calm   9.0 mph 35% 0.00 in 904.00 W/m2
12:39 84.1 °F 54.3 °F 29.98 in WSW 3.0 mph 11.0 mph 36% 0.00 in 911.00 W/m2
12:44 84.4 °F 53.8 °F 29.98 in West 4.0 mph 8.0 mph 35% 0.00 in 909.00 W/m2
12:49 84.5 °F 53.9 °F 29.99 in West 4.0 mph 8.0 mph 35% 0.00 in 909.00 W/m2
12:54 84.3 °F 54.5 °F 29.99 in Calm   5.0 mph 36% 0.00 in 912.00 W/m2
12:59 84.2 °F 55.1 °F 29.99 in WSW 4.0 mph 8.0 mph 37% 0.00 in 919.00 W/m2
13:04 84.2 °F 53.6 °F 29.98 in Calm   6.0 mph 35% 0.00 in 914.00 W/m2
13:09 84.5 °F 54.6 °F 29.98 in WSW 5.0 mph 9.0 mph 36% 0.00 in 916.00 W/m2
13:14 85.1 °F 55.2 °F 29.98 in West 4.0 mph 9.0 mph 36% 0.00 in 914.00 W/m2
13:19 85.3 °F 56.1 °F 29.98 in SSW 1.0 mph 10.0 mph 37% 0.00 in 916.00 W/m2
13:24 85.5 °F 54.0 °F 29.98 in West 1.0 mph 5.0 mph 34% 0.00 in 911.00 W/m2
13:29 85.5 °F 55.5 °F 29.98 in WSW 9.0 mph 9.0 mph 36% 0.00 in 916.00 W/m2
13:34 85.6 °F 55.6 °F 29.98 in Calm   9.0 mph 36% 0.00 in 914.00 W/m2
13:39 85.6 °F 56.4 °F 29.98 in Calm   1.0 mph 37% 0.00 in 907.00 W/m2
13:44 85.3 °F 55.3 °F 29.98 in Calm   7.0 mph 36% 0.00 in 907.00 W/m2
13:49 85.6 °F 56.4 °F 29.98 in West 7.0 mph 8.0 mph 37% 0.00 in 904.00 W/m2
13:54 85.9 °F 55.9 °F 29.98 in Calm   9.0 mph 36% 0.00 in 895.00 W/m2
13:59 86.1 °F 55.3 °F 29.97 in Calm   10.0 mph 35% 0.00 in 898.00 W/m2
14:04 86.1 °F 53.7 °F 29.98 in Calm   7.0 mph 33% 0.00 in 891.00 W/m2
14:09 86.0 °F 53.6 °F 29.97 in Calm   7.0 mph 33% 0.00 in 889.00 W/m2
14:14 85.9 °F 53.5 °F 29.97 in WNW 1.0 mph 7.0 mph 33% 0.00 in 882.00 W/m2
14:19 85.9 °F 54.3 °F 29.97 in WNW 5.0 mph 6.0 mph 34% 0.00 in 877.00 W/m2
14:24 85.9 °F 52.7 °F 29.97 in Calm   6.0 mph 32% 0.00 in 870.00 W/m2
14:29 85.8 °F 51.7 °F 29.97 in West 4.0 mph 8.0 mph 31% 0.00 in 867.00 W/m2
14:34 85.7 °F 52.5 °F 29.97 in Calm   5.0 mph 32% 0.00 in 858.00 W/m2
14:39 85.8 °F 52.6 °F 29.97 in West 1.0 mph 11.0 mph 32% 0.00 in 856.00 W/m2
14:44 85.7 °F 53.3 °F 29.96 in Calm   8.0 mph 33% 0.00 in 847.00 W/m2
14:50 85.4 °F 52.2 °F 29.96 in West 3.0 mph 7.0 mph 32% 0.00 in 835.00 W/m2
14:55 85.1 °F 52.0 °F 29.96 in West 4.0 mph 4.0 mph 32% 0.00 in 833.00 W/m2
15:00 85.0 °F 51.9 °F 29.96 in Calm   8.0 mph 32% 0.00 in 821.00 W/m2
15:05 85.2 °F 52.0 °F 29.96 in Calm   8.0 mph 32% 0.00 in 816.00 W/m2
15:10 85.5 °F 53.1 °F 29.96 in Calm   3.0 mph 33% 0.00 in 805.00 W/m2
15:15 85.7 °F 50.7 °F 29.96 in Calm   6.0 mph 30% 0.00 in 802.00 W/m2
15:20 85.8 °F 51.7 °F 29.96 in WSW 5.0 mph 8.0 mph 31% 0.00 in 788.00 W/m2
15:25 86.0 °F 50.1 °F 29.96 in WSW 2.0 mph 7.0 mph 29% 0.00 in 779.00 W/m2
15:30 86.0 °F 51.9 °F 29.95 in Calm   6.0 mph 31% 0.00 in 770.00 W/m2
15:35 85.8 °F 50.8 °F 29.96 in WSW 9.0 mph 10.0 mph 30% 0.00 in 758.00 W/m2
15:40 85.7 °F 52.5 °F 29.96 in West 1.0 mph 8.0 mph 32% 0.00 in 744.00 W/m2
15:45 85.7 °F 49.8 °F 29.95 in Calm   1.0 mph 29% 0.00 in 733.00 W/m2
15:50 85.7 °F 51.6 °F 29.96 in West 3.0 mph 8.0 mph 31% 0.00 in 722.00 W/m2
15:55 85.7 °F 51.6 °F 29.95 in NW 2.0 mph 7.0 mph 31% 0.00 in 712.00 W/m2
16:00 85.6 °F 51.5 °F 29.95 in Calm   7.0 mph 31% 0.00 in 698.00 W/m2
16:05 85.5 °F 50.6 °F 29.95 in West 1.0 mph 5.0 mph 30% 0.00 in 686.00 W/m2
16:10 85.4 °F 50.5 °F 29.95 in WNW 4.0 mph 9.0 mph 30% 0.00 in 668.00 W/m2
16:15 85.4 °F 50.5 °F 29.95 in Calm   1.0 mph 30% 0.00 in 661.00 W/m2
16:20 85.3 °F 51.3 °F 29.95 in Calm   11.0 mph 31% 0.00 in 649.00 W/m2
16:24 85.2 °F 50.3 °F 29.95 in Calm   7.0 mph 30% 0.00 in 631.00 W/m2
16:29 85.2 °F 49.4 °F 29.95 in Calm   6.0 mph 29% 0.00 in 624.00 W/m2
16:34 85.0 °F 50.1 °F 29.95 in Calm   8.0 mph 30% 0.00 in 610.00 W/m2
16:39 84.9 °F 50.9 °F 29.95 in Calm   7.0 mph 31% 0.00 in 598.00 W/m2
16:44 84.9 °F 50.9 °F 29.95 in WNW 1.0 mph 6.0 mph 31% 0.00 in 587.00 W/m2
16:49 84.9 °F 50.9 °F 29.95 in Calm   9.0 mph 31% 0.00 in 578.00 W/m2
16:54 84.9 °F 50.0 °F 29.94 in Calm   8.0 mph 30% 0.00 in 575.00 W/m2
16:59 85.0 °F 49.2 °F 29.95 in Calm   8.0 mph 29% 0.00 in 564.00 W/m2
17:04 85.0 °F 51.0 °F 29.95 in WSW 1.0 mph 6.0 mph 31% 0.00 in 510.00 W/m2
17:09 84.9 °F 50.9 °F 29.94 in WNW 1.0 mph 8.0 mph 31% 0.00 in 540.00 W/m2
17:13 84.9 °F 50.0 °F 29.94 in WSW 1.0 mph 7.0 mph 30% 0.00 in 517.00 W/m2
17:18 84.9 °F 50.0 °F 29.94 in Calm   7.0 mph 30% 0.00 in 503.00 W/m2
17:23 84.8 °F 50.0 °F 29.94 in Calm   2.0 mph 30% 0.00 in 482.00 W/m2
17:28 84.6 °F 50.7 °F 29.94 in Calm   5.0 mph 31% 0.00 in 462.00 W/m2
17:33 84.5 °F 49.7 °F 29.94 in Calm   3.0 mph 30% 0.00 in 446.00 W/m2
17:38 84.4 °F 50.5 °F 29.94 in Calm   1.0 mph 31% 0.00 in 424.00 W/m2
17:43 84.3 °F 50.4 °F 29.93 in WSW 4.0 mph 6.0 mph 31% 0.00 in 411.00 W/m2
17:48 84.2 °F 51.2 °F 29.94 in Calm   1.0 mph 32% 0.00 in 396.00 W/m2
17:53 84.1 °F 51.1 °F 29.94 in Calm   3.0 mph 32% 0.00 in 383.00 W/m2
17:58 84.0 °F 51.0 °F 29.94 in Calm   2.0 mph 32% 0.00 in 371.00 W/m2
18:03 83.9 °F 51.8 °F 29.94 in WSW 3.0 mph 4.0 mph 33% 0.00 in 352.00 W/m2
18:08 83.8 °F 51.7 °F 29.94 in Calm   3.0 mph 33% 0.00 in 338.00 W/m2
18:13 83.6 °F 50.7 °F 29.94 in Calm     32% 0.00 in 322.00 W/m2
18:18 83.5 °F 51.4 °F 29.94 in Calm   5.0 mph 33% 0.00 in 308.00 W/m2
18:23 83.4 °F 51.3 °F 29.94 in West 5.0 mph 5.0 mph 33% 0.00 in 290.00 W/m2
18:28 83.3 °F 52.0 °F 29.93 in West 4.0 mph 6.0 mph 34% 0.00 in 276.00 W/m2
18:33 83.1 °F 50.2 °F 29.93 in Calm   3.0 mph 32% 0.00 in 258.00 W/m2
18:38 83.0 °F 51.0 °F 29.94 in Calm   6.0 mph 33% 0.00 in 246.00 W/m2
18:43 82.9 °F 51.7 °F 29.94 in Calm   1.0 mph 34% 0.00 in 229.00 W/m2
18:48 82.8 °F 52.4 °F 29.94 in Calm   1.0 mph 35% 0.00 in 213.00 W/m2
18:53 82.6 °F 53.0 °F 29.94 in Calm   1.0 mph 36% 0.00 in 195.00 W/m2
18:58 82.3 °F 53.5 °F 29.94 in Calm   1.0 mph 37% 0.00 in 178.00 W/m2
19:03 82.0 °F 53.2 °F 29.94 in Calm   1.0 mph 37% 0.00 in 162.00 W/m2
19:08 81.7 °F 53.7 °F 29.94 in Calm   1.0 mph 38% 0.00 in 141.00 W/m2
19:13 81.4 °F 53.4 °F 29.94 in Calm   2.0 mph 38% 0.00 in 123.00 W/m2
19:18 80.9 °F 53.7 °F 29.94 in Calm   1.0 mph 39% 0.00 in 105.00 W/m2
19:23 80.5 °F 54.0 °F 29.94 in Calm   1.0 mph 40% 0.00 in 90.00 W/m2
19:28 80.1 °F 53.6 °F 29.94 in Calm   1.0 mph 40% 0.00 in 72.00 W/m2
19:33 79.7 °F 53.9 °F 29.94 in Calm   2.0 mph 41% 0.00 in 58.00 W/m2
19:38 79.2 °F 54.8 °F 29.94 in Calm   1.0 mph 43% 0.00 in 46.00 W/m2
19:43 78.6 °F 54.9 °F 29.94 in Calm   1.0 mph 44% 0.00 in 33.00 W/m2
19:48 78.2 °F 54.5 °F 29.94 in Calm   2.0 mph 44% 0.00 in 26.00 W/m2
19:53 77.7 °F 54.1 °F 29.94 in Calm     44% 0.00 in 19.00 W/m2
19:58 77.2 °F 54.2 °F 29.94 in Calm     45% 0.00 in 16.00 W/m2
20:03 76.8 °F 53.3 °F 29.94 in Calm   1.0 mph 44% 0.00 in 12.00 W/m2
20:08 76.4 °F 53.5 °F 29.95 in Calm     45% 0.00 in 11.00 W/m2
20:13 76.0 °F 53.2 °F 29.95 in Calm     45% 0.00 in 9.00 W/m2
20:18 75.5 °F 52.7 °F 29.95 in Calm     45% 0.00 in 5.00 W/m2
20:24 75.1 °F 52.3 °F 29.95 in Calm     45% 0.00 in 5.00 W/m2
20:29 74.8 °F 52.1 °F 29.95 in Calm   1.0 mph 45% 0.00 in 0.00 W/m2
20:34 74.4 °F 52.3 °F 29.95 in Calm   1.0 mph 46% 0.00 in 0.00 W/m2
20:39 74.1 °F 52.0 °F 29.95 in Calm   1.0 mph 46% 0.00 in 0.00 W/m2
20:44 73.8 °F 51.8 °F 29.95 in Calm   1.0 mph 46% 0.00 in 0.00 W/m2
20:49 73.7 °F 51.7 °F 29.95 in Calm     46% 0.00 in 0.00 W/m2
20:54 73.5 °F 51.5 °F 29.95 in Calm   1.0 mph 46% 0.00 in 0.00 W/m2
20:59 73.4 °F 51.4 °F 29.96 in Calm     46% 0.00 in 0.00 W/m2
21:04 73.3 °F 51.3 °F 29.96 in Calm   1.0 mph 46% 0.00 in 0.00 W/m2
21:09 73.0 °F 51.0 °F 29.96 in Calm   3.0 mph 46% 0.00 in 0.00 W/m2
21:14 72.8 °F 50.8 °F 29.95 in Calm   1.0 mph 46% 0.00 in 0.00 W/m2
21:19 72.6 °F 50.7 °F 29.96 in Calm   1.0 mph 46% 0.00 in 0.00 W/m2
21:24 72.4 °F 50.5 °F 29.96 in Calm   1.0 mph 46% 0.00 in 0.00 W/m2
21:29 72.4 °F 50.5 °F 29.96 in Calm   1.0 mph 46% 0.00 in 0.00 W/m2
21:34 72.3 °F 50.4 °F 29.96 in Calm   1.0 mph 46% 0.00 in 0.00 W/m2
21:39 72.2 °F 50.3 °F 29.96 in Calm   2.0 mph 46% 0.00 in 0.00 W/m2
21:44 72.2 °F 50.3 °F 29.96 in Calm   1.0 mph 46% 0.00 in 0.00 W/m2
21:49 72.2 °F 50.3 °F 29.96 in Calm   1.0 mph 46% 0.00 in 0.00 W/m2
21:50 72.2 °F 50.9 °F 29.96 in Calm   1.0 mph 47% 0.00 in 0.00 W/m2
21:55 72.2 °F 50.9 °F 29.96 in WNW 2.0 mph 4.0 mph 47% 0.00 in 0.00 W/m2
22:00 72.1 °F 50.8 °F 29.96 in Calm   1.0 mph 47% 0.00 in 0.00 W/m2
22:06 72.1 °F 50.8 °F 29.96 in NNW 1.0 mph 5.0 mph 47% 0.00 in 0.00 W/m2
22:11 72.1 °F 50.8 °F 29.97 in NE 3.0 mph 5.0 mph 47% 0.00 in 0.00 W/m2
22:16 72.2 °F 50.9 °F 29.96 in NE 5.0 mph 6.0 mph 47% 0.00 in 0.00 W/m2
22:21 72.1 °F 50.8 °F 29.96 in ENE 4.0 mph 6.0 mph 47% 0.00 in 0.00 W/m2
22:26 72.1 °F 50.2 °F 29.96 in ENE 2.0 mph 7.0 mph 46% 0.00 in 0.00 W/m2
22:31 72.1 °F 50.2 °F 29.96 in Calm     46% 0.00 in 0.00 W/m2
22:36 72.1 °F 50.8 °F 29.96 in East 4.0 mph 7.0 mph 47% 0.00 in 0.00 W/m2
22:41 72.0 °F 50.1 °F 29.96 in East 3.0 mph 7.0 mph 46% 0.00 in 0.00 W/m2
22:46 72.1 °F 50.8 °F 29.96 in East 1.0 mph 5.0 mph 47% 0.00 in 0.00 W/m2
22:51 72.0 °F 50.7 °F 29.96 in East 5.0 mph 7.0 mph 47% 0.00 in 0.00 W/m2
22:56 72.0 °F 50.1 °F 29.96 in East 5.0 mph 11.0 mph 46% 0.00 in 0.00 W/m2
23:01 72.0 °F 50.1 °F 29.97 in East 4.0 mph 7.0 mph 46% 0.00 in 0.00 W/m2
23:06 72.0 °F 50.1 °F 29.97 in East 1.0 mph 8.0 mph 46% 0.00 in 0.00 W/m2
23:11 71.9 °F 50.0 °F 29.97 in East 6.0 mph 9.0 mph 46% 0.00 in 0.00 W/m2
23:16 71.9 °F 50.0 °F 29.97 in ESE 6.0 mph 6.0 mph 46% 0.00 in 0.00 W/m2
23:21 71.9 °F 50.0 °F 29.97 in Calm   8.0 mph 46% 0.00 in 0.00 W/m2
23:26 71.8 °F 49.9 °F 29.97 in East 4.0 mph 9.0 mph 46% 0.00 in 0.00 W/m2
23:31 71.8 °F 49.3 °F 29.97 in ESE 8.0 mph 12.0 mph 45% 0.00 in 0.00 W/m2
23:36 71.7 °F 49.2 °F 29.97 in Calm     45% 0.00 in 0.00 W/m2
23:41 71.7 °F 49.2 °F 29.97 in ESE 7.0 mph 11.0 mph 45% 0.00 in 0.00 W/m2
23:46 71.7 °F 49.2 °F 29.97 in ESE 7.0 mph 12.0 mph 45% 0.00 in 0.00 W/m2
23:51 71.7 °F 49.2 °F 29.97 in ESE 6.0 mph 6.0 mph 45% 0.00 in 0.00 W/m2
23:56 71.6 °F 49.2 °F 29.97 in ESE 2.0 mph 13.0 mph 45% 0.00 in 0.00 W/m2
Foresthill Weather
 WU-history PHP script courtesy of   Juneau County Weather.
powered by Cumulus v1.9.3 (1059)
Ambient Weather VWS v14.00
Top Contact Website Map Copyright © 2007 - 2018 Foresthillweather.com Never base important decisions on this or any weather information obtained from the Internet